GLD1794 LPAZ-LPPD

Flight info

Callsign GLD1794
Flight time 0h 16m
Altitude 12000
Route XUVAP
Aircraft A320/M-SDE3FGHIRWY/LB1

Departure

Time 2026-05-08 09:33
Airport Santa Maria Airport (LPAZ)

Arrival

Time 2026-05-08 09:50
Airport João Paulo II Airport (LPPD)
Time Latitude Longitude Altitude Speed Heading
2026-05-08 09:14 36.97415 -25.16629 304 ft 0 kts 352°
2026-05-08 09:26 36.97418 -25.16630 303 ft 1 kts 348°
2026-05-08 09:26 36.97425 -25.16639 304 ft 2 kts 309°
2026-05-08 09:26 36.97433 -25.16669 304 ft 6 kts 285°
2026-05-08 09:27 36.97436 -25.16732 303 ft 9 kts 267°
2026-05-08 09:27 36.97420 -25.16822 305 ft 12 kts 249°
2026-05-08 09:27 36.97373 -25.16912 304 ft 13 kts 230°
2026-05-08 09:27 36.97368 -25.17016 308 ft 12 kts 281°
2026-05-08 09:28 36.97332 -25.17092 306 ft 11 kts 190°
2026-05-08 09:28 36.97259 -25.17081 308 ft 11 kts 171°
2026-05-08 09:28 36.97179 -25.17065 305 ft 12 kts 171°
2026-05-08 09:28 36.97098 -25.17048 305 ft 12 kts 171°
2026-05-08 09:29 36.97012 -25.17031 303 ft 15 kts 171°
2026-05-08 09:29 36.96903 -25.17011 302 ft 16 kts 172°
2026-05-08 09:29 36.96798 -25.16992 301 ft 15 kts 171°
2026-05-08 09:29 36.96701 -25.16972 304 ft 14 kts 170°
2026-05-08 09:30 36.96609 -25.16952 301 ft 13 kts 171°
2026-05-08 09:30 36.96523 -25.16938 301 ft 12 kts 170°
2026-05-08 09:30 36.96441 -25.16921 304 ft 11 kts 171°
2026-05-08 09:30 36.96362 -25.16904 303 ft 13 kts 170°
2026-05-08 09:31 36.96253 -25.16881 304 ft 18 kts 170°
2026-05-08 09:31 36.96122 -25.16857 304 ft 19 kts 172°
2026-05-08 09:31 36.96001 -25.16836 306 ft 16 kts 172°
2026-05-08 09:31 36.95898 -25.16831 305 ft 10 kts 142°
2026-05-08 09:32 36.95910 -25.16813 305 ft 3 kts 340°
2026-05-08 09:32 36.95934 -25.16820 305 ft 0 kts 349°
2026-05-08 09:32 36.96057 -25.16845 304 ft 49 kts 351°
2026-05-08 09:32 36.96618 -25.16955 302 ft 111 kts 351°
2026-05-08 09:33 36.97533 -25.17134 456 ft 144 kts 348°
2026-05-08 09:33 36.98532 -25.17318 1107 ft 147 kts 349°
2026-05-08 09:33 36.99518 -25.17520 1900 ft 145 kts 348°
2026-05-08 09:33 37.00562 -25.17752 2470 ft 160 kts 348°
2026-05-08 09:34 37.01715 -25.18015 2766 ft 183 kts 348°
2026-05-08 09:34 37.03057 -25.18319 3165 ft 208 kts 350°
2026-05-08 09:34 37.04558 -25.18654 3654 ft 228 kts 350°
2026-05-08 09:34 37.05627 -25.18891 4193 ft 233 kts 350°
2026-05-08 09:35 37.07765 -25.19366 5413 ft 237 kts 350°
2026-05-08 09:35 37.09399 -25.19733 6321 ft 241 kts 349°
2026-05-08 09:35 37.10520 -25.19986 6897 ft 243 kts 349°
2026-05-08 09:35 37.12194 -25.20360 7750 ft 246 kts 349°
2026-05-08 09:36 37.13888 -25.20740 8618 ft 249 kts 349°
2026-05-08 09:36 37.15604 -25.21127 9488 ft 252 kts 349°
2026-05-08 09:36 37.17324 -25.21515 10244 ft 259 kts 349°
2026-05-08 09:36 37.19175 -25.21933 10515 ft 282 kts 349°
2026-05-08 09:37 37.21160 -25.22380 10992 ft 295 kts 349°
2026-05-08 09:37 37.23196 -25.22837 11655 ft 300 kts 349°
2026-05-08 09:37 37.25278 -25.23306 11897 ft 300 kts 350°
2026-05-08 09:37 37.27276 -25.23756 11907 ft 291 kts 350°
2026-05-08 09:38 37.29217 -25.24193 11652 ft 275 kts 350°
2026-05-08 09:38 37.31078 -25.24612 11402 ft 269 kts 350°
2026-05-08 09:38 37.32916 -25.25024 11152 ft 268 kts 350°
2026-05-08 09:38 37.34751 -25.25437 10909 ft 268 kts 349°
2026-05-08 09:39 37.36582 -25.25850 10662 ft 267 kts 350°
2026-05-08 09:39 37.38364 -25.26252 10418 ft 252 kts 349°
2026-05-08 09:39 37.40033 -25.26630 10178 ft 236 kts 349°
2026-05-08 09:39 37.41601 -25.26983 9937 ft 224 kts 350°
2026-05-08 09:40 37.43125 -25.27325 9791 ft 222 kts 349°
2026-05-08 09:40 37.44641 -25.27668 9670 ft 222 kts 350°
2026-05-08 09:40 37.46155 -25.28010 9541 ft 220 kts 350°
2026-05-08 09:40 37.47678 -25.28353 9117 ft 224 kts 350°
2026-05-08 09:41 37.49218 -25.28700 8740 ft 223 kts 350°
2026-05-08 09:41 37.50738 -25.29046 8300 ft 225 kts 350°
2026-05-08 09:41 37.52264 -25.29393 8082 ft 218 kts 350°
2026-05-08 09:41 37.53742 -25.29731 7797 ft 214 kts 350°
2026-05-08 09:42 37.55204 -25.30066 7440 ft 213 kts 350°
2026-05-08 09:42 37.56661 -25.30399 7075 ft 212 kts 350°
2026-05-08 09:42 37.58115 -25.30730 6725 ft 212 kts 350°
2026-05-08 09:42 37.59561 -25.31062 6395 ft 211 kts 349°
2026-05-08 09:43 37.60940 -25.31671 6029 ft 211 kts 333°
2026-05-08 09:43 37.62110 -25.32795 5644 ft 215 kts 317°
2026-05-08 09:43 37.62913 -25.34380 5496 ft 214 kts 302°
2026-05-08 09:43 37.63529 -25.36129 5493 ft 221 kts 299°
2026-05-08 09:44 37.64107 -25.37933 5309 ft 221 kts 299°
2026-05-08 09:44 37.64661 -25.39683 5054 ft 215 kts 301°
2026-05-08 09:44 37.65212 -25.41417 4772 ft 211 kts 301°
2026-05-08 09:44 37.65755 -25.43123 4492 ft 207 kts 301°
2026-05-08 09:45 37.66287 -25.44794 4214 ft 204 kts 300°
2026-05-08 09:45 37.66810 -25.46436 3941 ft 200 kts 301°
2026-05-08 09:45 37.67323 -25.48050 3672 ft 196 kts 300°
2026-05-08 09:45 37.67825 -25.49632 3414 ft 192 kts 300°
2026-05-08 09:46 37.68317 -25.51181 3155 ft 188 kts 302°
2026-05-08 09:46 37.68797 -25.52696 2900 ft 184 kts 302°
2026-05-08 09:46 37.69267 -25.54178 2652 ft 177 kts 303°
2026-05-08 09:46 37.69698 -25.55552 2442 ft 159 kts 304°
2026-05-08 09:47 37.70088 -25.56787 2204 ft 145 kts 305°
2026-05-08 09:47 37.70458 -25.57948 2022 ft 142 kts 304°
2026-05-08 09:47 37.70829 -25.59110 1830 ft 142 kts 301°
2026-05-08 09:47 37.71196 -25.60263 1637 ft 143 kts 300°
2026-05-08 09:48 37.71562 -25.61422 1444 ft 140 kts 303°
2026-05-08 09:48 37.71927 -25.62573 1247 ft 142 kts 301°
2026-05-08 09:48 37.72290 -25.63717 1039 ft 141 kts 299°
2026-05-08 09:48 37.72667 -25.64868 837 ft 141 kts 297°
2026-05-08 09:49 37.73011 -25.66012 672 ft 142 kts 295°
2026-05-08 09:49 37.73371 -25.67167 457 ft 141 kts 296°
2026-05-08 09:49 37.73743 -25.68325 259 ft 143 kts 295°
2026-05-08 09:49 37.74095 -25.69433 222 ft 121 kts 293°
2026-05-08 09:50 37.74305 -25.70100 241 ft 38 kts 291°
2026-05-08 09:50 37.74382 -25.70346 253 ft 16 kts 290°
2026-05-08 09:50 37.74420 -25.70466 259 ft 16 kts 292°
2026-05-08 09:50 37.74469 -25.70615 262 ft 20 kts 292°
2026-05-08 09:51 37.74516 -25.70771 268 ft 18 kts 293°
2026-05-08 09:51 37.74562 -25.70914 270 ft 18 kts 291°
2026-05-08 09:51 37.74637 -25.71021 272 ft 17 kts 349°
2026-05-08 09:51 37.74754 -25.71025 272 ft 13 kts 359°
2026-05-08 09:52 37.74835 -25.71001 272 ft 8 kts 22°
2026-05-08 09:52 37.74841 -25.70998 272 ft 0 kts 22°